SCP
0 0 0 0 0 0 0 0 0 0 0 0 0 0 0 0 0 0 0 0 0 0
0 0 0 0 0 0 0 0 0 0 0 0 0 0 0 0 0 0 0 0 0 0
0 0 0 0 0 0 0 0 0 0 0 0 0 0 0 0 0 0 0 0 0 0
0 0 0 0 0 0 0 0 0 0 0 0 0 0 0 0 0 0 0 0 0 0
0 0 0 0 0 0 0 0 0 0 0 0 0 0 0 0 0 0 0 0 0 0
0 0 0 0 0 0 0 0 0 0 0 0 0 0 0 0 0 0 0 0 0 0
0 0 0 0 0 0 0 0 0 0 0 0 0 0 0 0 0 0 0 0 0 0
0 0 0 0 -0 -0 -0 -0 0 0 0 0 0 0 0 0 0 0 0 0 0 0
-0 -0 -0 -0 -0 -0 -0 -0 -0 -0 -0 0 0 0 0 0 0 0 0 0 0 0
-0 -0 -0 -0 -0 -0 -0 -0 -0 -0 -0 -0 0 0 0 0 0 0 0 0 0 0
-0 -0 -0 -0 -0 -0 -0 -0 -0 -0 -0 -0 -0 0 0 0 0 0 0 0 0 0
-0 -0 -0 -0 -0 -0 -0 -0 -0 -0 -0 -0 -0 -0 0 0 0 0 0 0 0 0
-0 -0 -0 -0 -0 -0 -0 -0 -0 0 0 0 0 0 0 0 0 0 0 0 0 0
-0 -0 -0 -0 -0 -0 -0 -0 -0 -0 0 0 0 0 0 0 0 0 0 0 0 0
Wind_Speed_500mb
14 16 24 33 41 48 52 55 59 61 62 62 59 58 62 69 74 75 80 81 82 85
18 20 21 22 23 29 35 43 49 54 58 60 60 61 60 68 71 72 77 81 80 83
26 24 24 24 26 29 31 34 37 42 49 56 59 60 61 64 67 73 77 82 85 83
32 33 33 35 34 35 36 39 40 42 43 43 48 52 58 66 70 73 76 79 84 86
37 37 37 39 41 45 46 45 47 47 46 46 47 46 47 56 62 69 78 87 84 87
42 45 47 48 49 49 50 50 51 53 53 52 52 50 49 53 57 65 73 77 82 93
50 52 54 55 56 57 59 60 59 59 60 58 57 55 54 54 58 64 68 73 79 83
57 57 59 62 65 67 67 67 66 67 66 65 64 61 60 60 64 69 73 76 78 79
68 73 76 77 76 74 73 75 77 78 77 75 74 68 66 67 72 73 77 79 79 82
71 76 81 85 87 90 91 91 89 85 85 87 86 80 76 72 77 81 83 82 82 84
73 79 82 86 89 91 92 94 98 99 98 98 93 87 85 84 84 85 86 85 85 85
77 80 85 89 92 94 96 96 95 95 96 98 101 97 88 86 91 95 94 88 85 85
77 80 83 87 89 88 89 91 92 93 91 91 91 86 83 74 76 90 96 96 94 86
69 73 77 80 83 87 88 89 89 90 89 86 83 83 73 59 64 76 88 91 98 96
Wind_Direction_500mb
354 326 307 293 287 286 287 292 294 293 295 295 295 292 290 286 283 281 277 276 274 273
21 4 355 345 336 318 305 295 289 288 288 290 291 290 289 288 288 286 285 281 279 277
33 21 11 357 349 339 328 320 312 298 289 287 287 288 290 287 288 288 287 284 279 278
29 22 16 10 6 356 350 342 332 317 306 302 297 291 286 285 284 286 287 285 287 286
15 10 6 3 356 350 346 343 333 329 326 316 306 299 289 286 283 281 282 284 281 285
358 355 352 348 344 341 337 333 330 327 324 323 320 318 307 297 288 282 280 279 278 276
350 347 342 338 335 333 330 327 325 324 322 320 318 318 315 311 300 289 281 278 278 277
343 339 336 334 332 329 328 326 323 320 317 316 315 316 313 307 302 299 294 287 280 275
339 337 334 332 331 329 326 324 322 320 319 315 313 311 308 304 301 296 293 294 292 287
336 334 331 329 328 327 325 323 320 319 317 315 312 311 307 303 298 296 295 292 292 291
338 335 332 330 328 326 324 322 320 317 316 314 313 313 310 306 301 297 293 291 290 289
345 341 339 335 334 332 328 324 321 318 316 315 312 314 314 312 305 300 296 293 289 288
349 347 345 344 341 338 335 331 328 322 318 318 317 317 316 319 311 302 301 298 294 288
353 352 352 349 346 343 340 337 336 333 331 329 327 325 323 318 309 306 303 299 299 297
Wind_Speed_850mb
14 16 24 33 41 48 52 55 59 61 62 62 59 58 62 69 74 75 80 81 82 85
18 20 21 22 23 29 35 43 49 54 58 60 60 61 60 68 71 72 77 81 80 83
26 24 24 24 26 29 31 34 37 42 49 56 59 60 61 64 67 73 77 82 85 83
32 33 33 35 34 35 36 39 40 42 43 43 48 52 58 66 70 73 76 79 84 86
37 37 37 39 41 45 46 45 47 47 46 46 47 46 47 56 62 69 78 87 84 87
42 45 47 48 49 49 50 50 51 53 53 52 52 50 49 53 57 65 73 77 82 93
50 52 54 55 56 57 59 60 59 59 60 58 57 55 54 54 58 64 68 73 79 83
57 57 59 62 65 67 67 67 66 67 66 65 64 61 60 60 64 69 73 76 78 79
68 73 76 77 76 74 73 75 77 78 77 75 74 68 66 67 72 73 77 79 79 82
71 76 81 85 87 90 91 91 89 85 85 87 86 80 76 72 77 81 83 82 82 84
73 79 82 86 89 91 92 94 98 99 98 98 93 87 85 84 84 85 86 85 85 85
77 80 85 89 92 94 96 96 95 95 96 98 101 97 88 86 91 95 94 88 85 85
77 80 83 87 89 88 89 91 92 93 91 91 91 86 83 74 76 90 96 96 94 86
69 73 77 80 83 87 88 89 89 90 89 86 83 83 73 59 64 76 88 91 98 96
Wind_Direction_850mb
354 326 307 293 287 286 287 292 294 293 295 295 295 292 290 286 283 281 277 276 274 273
21 4 355 345 336 318 305 295 289 288 288 290 291 290 289 288 288 286 285 281 279 277
33 21 11 357 349 339 328 320 312 298 289 287 287 288 290 287 288 288 287 284 279 278
29 22 16 10 6 356 350 342 332 317 306 302 297 291 286 285 284 286 287 285 287 286
15 10 6 3 356 350 346 343 333 329 326 316 306 299 289 286 283 281 282 284 281 285
358 355 352 348 344 341 337 333 330 327 324 323 320 318 307 297 288 282 280 279 278 276
350 347 342 338 335 333 330 327 325 324 322 320 318 318 315 311 300 289 281 278 278 277
343 339 336 334 332 329 328 326 323 320 317 316 315 316 313 307 302 299 294 287 280 275
339 337 334 332 331 329 326 324 322 320 319 315 313 311 308 304 301 296 293 294 292 287
336 334 331 329 328 327 325 323 320 319 317 315 312 311 307 303 298 296 295 292 292 291
338 335 332 330 328 326 324 322 320 317 316 314 313 313 310 306 301 297 293 291 290 289
345 341 339 335 334 332 328 324 321 318 316 315 312 314 314 312 305 300 296 293 289 288
349 347 345 344 341 338 335 331 328 322 318 318 317 317 316 319 311 302 301 298 294 288
353 352 352 349 346 343 340 337 336 333 331 329 327 325 323 318 309 306 303 299 299 297